GFSSGP_925_temp_036.txt.gz
Temp
30 28 26 25 28 27 30 31 32 31 30 31 32 31 30 29 28 25 24 24 24 23 24 24 24 24 24 24 23 24 24 23 23 23 23 23 23 23 22 22 22 22 22 22 21 21 21 21 21
31 29 27 28 27 27 29 31 30 31 32 31 31 30 28 26 26 23 23 22 24 24 24 24 24 24 24 24 24 24 24 23 23 23 23 22 22 22 22 22 22 22 21 22 21 21 21 21 21
31 31 29 28 27 29 29 31 31 32 32 32 31 31 29 26 25 25 23 23 23 24 24 24 24 24 24 23 23 23 23 23 23 23 23 22 22 21 22 22 22 22 21 21 21 21 21 21 21
32 28 27 29 30 32 32 32 32 32 32 32 31 29 29 29 27 25 23 24 24 24 24 24 24 24 24 23 23 23 23 23 22 22 22 22 21 21 22 22 22 21 21 21 21 21 21 22 21
30 27 27 28 32 33 33 33 33 31 31 31 31 28 27 27 27 24 24 24 25 24 24 24 24 24 23 23 23 23 23 22 22 22 22 22 22 22 22 22 22 22 21 21 21 21 21 22 21
27 28 27 27 29 35 34 34 33 32 31 30 29 28 27 26 25 24 24 24 25 25 25 24 24 24 23 23 23 23 22 22 21 22 22 22 22 22 22 22 22 22 21 21 22 21 21 22 22
27 26 27 29 31 34 34 34 32 31 30 30 30 27 27 27 26 25 25 25 24 25 25 25 24 24 23 23 22 22 21 22 22 22 22 22 22 22 22 22 22 22 22 22 22 22 21 22 22
27 25 29 30 32 33 35 34 33 32 32 32 31 27 27 26 25 25 24 24 25 24 23 24 24 24 23 23 23 23 22 23 23 22 22 22 22 22 22 22 22 22 22 22 22 22 22 22 22
29 28 31 32 33 33 33 33 34 34 31 32 32 30 29 25 24 24 23 23 23 23 24 23 23 24 24 23 23 23 22 22 22 21 22 22 22 22 22 22 23 22 22 22 22 21 21 22 22
29 26 30 32 34 34 34 34 33 31 30 30 29 30 28 26 25 24 23 22 22 23 24 24 24 24 24 23 23 23 22 22 22 22 22 22 23 22 22 23 23 22 22 21 22 22 21 21 22
29 29 30 32 33 35 34 34 33 30 29 29 28 29 29 27 26 25 24 23 23 24 24 24 25 25 25 24 24 23 23 23 23 23 22 23 23 22 22 22 23 23 22 22 22 22 22 21 22
33 32 33 35 35 35 33 33 32 33 31 31 30 30 28 27 26 26 25 24 24 23 24 25 25 24 24 24 23 24 23 23 23 23 23 23 23 23 23 23 23 23 23 23 22 22 22 22 21
33 36 34 35 37 37 34 34 33 33 31 31 31 30 28 27 27 27 26 25 25 23 24 25 24 25 24 24 23 23 23 23 23 23 23 23 23 23 23 23 23 23 23 23 22 22 22 22 22
36 36 36 37 37 37 35 34 34 32 32 31 30 29 28 28 27 27 27 26 25 25 25 25 24 24 24 24 24 24 23 24 23 23 24 23 24 24 24 24 24 23 23 23 23 23 22 22 22
36 36 34 35 36 36 34 34 32 32 32 31 30 30 29 28 28 27 28 27 27 27 26 26 24 24 24 24 23 23 23 24 23 24 24 24 24 24 24 24 24 23 23 23 22 22 22 22 22
33 32 32 34 35 36 34 32 33 32 32 31 31 30 30 28 28 29 29 28 28 26 25 25 24 25 23 23 24 22 23 23 23 24 24 25 25 24 24 24 24 24 23 23 23 22 22 22 21
28 30 31 33 34 35 35 33 33 32 32 31 31 30 30 28 27 29 29 30 27 26 26 23 23 23 23 24 24 23 24 23 23 24 25 25 25 24 24 24 23 23 23 23 22 22 22 22 22
30 32 33 33 36 36 34 33 34 32 32 31 31 30 28 28 28 29 30 29 27 25 23 23 24 25 23 23 23 23 24 24 23 24 24 24 25 24 24 24 23 23 22 22 22 21 21 22 22
32 33 32 34 36 36 35 35 34 32 32 31 29 28 28 28 28 28 30 28 23 22 23 24 24 23 23 24 21 22 25 24 25 25 23 24 24 24 24 23 23 22 22 22 22 21 21 21 21
35 34 33 33 36 35 35 35 33 31 32 32 30 29 28 27 27 28 28 26 24 21 22 22 23 23 24 23 21 25 26 26 25 24 24 23 24 24 23 22 22 21 21 21 21 21 21 21 21
33 33 33 32 34 33 33 30 32 33 31 31 30 29 29 28 27 26 26 25 23 21 22 22 22 23 23 22 21 23 25 25 24 24 23 24 24 23 22 22 22 21 21 21 21 21 21 21 20
33 33 34 33 30 30 31 28 29 28 30 31 30 29 29 27 27 25 24 24 23 22 22 23 23 24 23 22 23 23 23 22 22 22 23 23 22 22 22 21 21 20 20 20 20 20 20 20 20
32 34 35 34 29 29 29 28 28 28 30 29 29 30 29 27 27 25 24 26 24 23 23 23 23 23 23 23 24 23 22 22 22 23 23 22 21 21 21 20 20 20 20 20 20 20 20 20 20
35 32 28 26 26 26 28 28 27 29 31 30 30 30 29 27 27 25 26 24 23 23 23 22 22 23 22 22 23 22 22 21 22 22 22 21 21 20 20 20 20 20 21 21 20 20 20 20 21
32 26 24 27 25 26 28 28 27 30 30 32 29 29 28 28 26 24 23 23 24 23 23 23 22 22 22 22 21 21 22 22 22 21 21 21 20 19 19 19 20 20 21 20 20 20 21 21 21
31 27 24 28 26 27 28 29 29 29 30 32 31 29 28 27 25 24 23 23 23 23 24 23 23 22 22 21 22 22 22 22 21 21 20 19 19 19 19 19 19 19 19 20 20 20 21 21 21
32 29 28 26 26 26 26 30 30 28 26 25 28 29 27 26 25 24 23 24 24 23 24 24 23 23 22 22 22 22 22 21 21 20 20 19 20 19 19 19 19 19 19 19 20 20 20 20 20
31 31 30 23 29 29 26 29 27 26 27 27 26 25 23 24 25 24 24 24 24 24 24 24 23 23 23 22 22 22 22 21 20 20 19 19 20 19 19 19 19 19 19 19 19 19 19 19 19
31 30 26 25 24 25 25 25 25 24 25 25 25 24 22 23 24 22 23 24 25 24 24 24 24 23 23 22 22 22 21 21 20 19 19 20 19 19 19 18 18 17 17 18 18 18 18 18 18
30 30 26 25 28 24 24 24 22 23 22 24 26 26 23 22 23 22 23 24 24 23 23 23 23 22 21 22 22 22 21 21 20 20 20 19 19 18 18 18 17 17 17 17 17 17 17 17 17

GFSSGP_925_temp_042.txt.gz
Temp
21 21 21 22 25 24 26 29 29 29 29 28 29 29 27 25 26 25 22 23 24 23 23 23 22 22 21 21 21 23 23 23 23 23 23 22 22 22 22 22 22 21 21 21 21 21 21 21 20
21 21 22 23 25 25 26 28 28 28 28 28 28 28 26 24 24 22 22 22 24 24 23 23 23 22 21 21 22 22 22 23 23 22 22 22 22 22 22 22 22 22 22 22 21 21 21 21 21
21 23 23 24 24 26 27 29 28 29 29 30 28 27 26 24 23 22 23 23 23 24 23 23 23 22 22 23 22 22 22 22 22 22 22 22 22 22 22 22 21 21 22 22 22 21 22 21 21
22 24 24 27 29 30 29 29 29 29 29 29 27 26 26 25 24 23 22 23 24 23 23 23 23 23 22 22 22 22 22 22 22 22 21 22 22 22 22 21 21 21 21 22 22 22 21 21 21
25 24 26 28 28 30 30 29 29 29 28 28 28 25 24 24 24 22 22 23 24 23 23 22 23 23 22 22 22 21 22 22 21 21 22 21 21 21 21 21 21 22 21 22 22 22 21 21 20
26 25 27 28 29 30 30 30 30 29 28 27 26 25 23 22 22 21 22 23 23 23 22 23 23 23 23 23 22 21 21 22 21 21 21 21 21 22 21 21 22 22 21 22 22 22 22 21 21
27 26 28 28 30 31 30 30 29 28 28 28 27 24 22 22 22 21 22 23 23 23 23 23 23 22 22 22 22 22 22 21 21 22 22 21 21 21 21 21 22 22 22 22 22 22 22 22 21
25 25 28 28 30 31 30 30 29 29 29 29 27 23 23 23 22 22 22 22 22 22 22 22 22 22 22 22 22 22 22 21 21 21 21 21 21 21 21 21 21 22 22 22 22 22 22 22 22
28 26 28 30 29 31 29 30 30 30 28 29 28 25 25 23 22 21 21 21 21 21 21 21 22 22 22 22 22 22 22 21 21 21 21 21 21 21 21 21 21 21 21 21 21 22 22 22 22
27 26 31 31 31 31 31 30 30 28 28 26 25 25 23 22 21 21 21 20 21 21 22 22 22 22 22 22 21 22 21 21 21 21 21 21 21 22 21 22 22 22 21 21 21 21 21 22 22
28 30 31 32 32 31 30 30 30 28 27 26 24 24 23 22 22 21 21 21 22 22 22 22 22 23 22 22 22 22 22 22 22 21 21 22 22 22 22 22 22 22 21 21 21 21 21 21 22
31 31 31 32 30 31 30 30 29 29 30 28 25 24 23 22 22 22 21 21 22 22 23 23 23 22 22 23 22 22 22 22 22 22 22 22 22 22 23 22 22 23 22 22 22 22 21 21 22
31 32 31 31 31 31 31 30 30 29 28 26 25 24 23 23 23 23 23 22 22 23 23 23 22 22 22 22 22 22 22 23 23 23 22 23 23 23 23 23 23 23 23 22 22 22 22 22 22
32 31 31 33 33 31 31 31 31 29 27 26 25 24 24 24 24 23 23 22 23 23 22 21 21 21 22 22 22 22 23 22 22 23 23 23 23 23 23 23 23 23 23 23 23 22 22 22 22
31 33 32 32 33 32 30 31 30 28 27 26 25 25 24 24 24 24 23 23 24 22 22 22 22 22 21 22 23 23 23 23 23 23 23 23 23 23 23 23 23 23 23 23 22 22 22 21 22
29 29 30 33 33 31 32 30 31 27 27 26 26 26 25 24 24 24 24 24 24 23 22 21 27 25 23 22 23 24 24 23 23 22 24 24 23 23 23 23 23 23 22 22 22 22 22 21 21
26 30 30 30 31 32 32 31 30 27 27 26 26 26 26 25 24 25 25 24 24 23 23 23 25 25 21 20 19 20 21 22 22 22 23 24 24 24 24 23 23 23 22 22 22 21 21 21 21
30 30 29 29 31 32 31 32 28 27 27 27 26 26 25 25 25 25 25 25 25 23 24 24 25 23 20 19 19 19 21 22 22 22 22 24 24 24 24 23 23 22 22 22 21 21 21 20 20
30 29 29 29 32 33 31 32 30 27 27 26 25 25 25 25 26 25 24 25 24 22 22 22 23 23 20 20 20 19 20 21 22 21 20 23 24 23 23 22 22 22 22 21 21 20 20 20 19
29 29 30 29 30 32 31 31 29 27 28 28 27 26 25 24 24 22 20 21 22 22 21 22 23 22 20 21 20 21 21 21 21 21 21 23 23 23 22 22 22 21 21 21 21 20 19 19 19
30 30 32 31 30 29 30 29 29 30 28 28 27 27 26 25 24 22 20 20 20 21 22 22 23 21 21 21 21 20 21 21 21 20 21 22 22 21 21 21 21 21 20 20 20 20 19 19 18
31 31 32 32 29 29 27 27 27 28 25 26 26 26 25 25 24 22 20 19 20 21 22 23 22 21 21 21 21 22 22 21 21 21 21 21 21 21 21 20 20 19 19 19 19 19 19 19 18
31 31 30 29 27 28 27 26 26 26 28 26 26 25 25 25 24 23 21 20 21 22 22 23 22 20 21 21 22 21 21 20 21 20 20 20 20 20 20 20 20 20 20 19 19 19 19 18 18
29 29 24 22 23 25 26 26 26 26 27 25 27 26 25 24 23 21 21 21 20 22 22 23 21 20 20 21 21 21 21 20 20 20 20 20 19 19 19 19 19 19 19 19 19 19 19 19 19
28 25 23 26 23 25 25 26 26 26 26 26 27 25 25 24 22 21 21 20 20 21 22 22 21 21 21 21 22 22 21 21 20 20 20 19 19 19 19 19 19 19 19 19 19 19 19 19 19
29 26 23 27 24 25 24 28 27 26 24 24 26 25 25 23 22 22 21 21 20 22 22 22 22 22 22 22 22 21 21 21 20 20 19 19 19 18 18 18 18 19 19 18 19 19 19 19 19
28 28 25 21 21 24 24 26 27 26 25 24 24 24 24 23 22 22 21 21 21 21 21 22 22 22 22 22 22 21 21 21 20 19 19 19 18 18 18 18 18 18 18 18 18 18 18 19 19
30 26 26 22 26 28 24 25 25 28 27 24 24 23 22 22 22 22 21 21 21 21 22 22 22 22 21 21 21 21 21 20 19 19 19 18 18 18 18 17 17 18 17 17 18 17 18 18 18
28 26 21 21 22 24 24 25 22 25 25 24 22 22 21 22 22 21 21 21 21 22 22 22 20 20 19 19 19 20 20 20 19 19 18 18 18 17 17 17 17 17 17 17 17 17 17 17 17
29 27 23 23 26 20 22 25 26 24 23 21 22 23 22 22 21 21 20 21 21 21 22 20 20 19 19 19 19 21 20 20 19 18 18 18 18 17 16 17 17 17 17 17 17 16 16 16 16

GFSSGP_925_temp_045.txt.gz
Temp
21 21 22 24 30 32 31 31 32 31 31 30 31 31 30 28 29 27 23 24 23 23 23 22 22 22 22 22 23 23 23 23 23 23 22 22 22 22 22 22 22 22 22 22 21 21 21 21 20
21 22 23 26 32 33 32 31 31 31 30 31 31 30 29 26 25 24 24 23 24 23 23 23 22 22 22 23 23 23 23 23 23 23 23 22 22 22 22 22 22 22 22 22 21 21 21 21 20
22 23 28 32 31 32 32 31 31 31 31 31 30 29 28 26 24 25 23 23 23 23 23 23 22 22 22 22 22 22 22 22 22 22 22 22 22 22 21 22 22 22 22 22 22 21 21 21 22
23 25 28 33 33 32 32 32 31 31 31 31 30 28 27 26 25 24 23 23 23 23 23 22 22 21 21 22 22 22 22 22 21 21 21 21 22 22 22 22 22 22 22 22 21 21 22 21 21
25 29 33 33 33 33 33 32 31 31 30 30 30 28 26 25 24 23 23 23 23 23 23 22 22 22 22 22 21 21 22 21 22 21 21 21 21 21 21 21 21 22 22 22 22 21 22 21 21
30 30 34 33 33 32 33 32 32 31 30 29 29 28 26 23 23 23 23 23 23 23 23 23 22 22 22 21 21 22 22 21 22 21 21 21 21 22 21 21 21 21 22 22 22 21 22 21 21
32 33 33 33 33 33 33 33 32 31 30 30 29 28 25 24 23 23 23 22 22 23 23 22 22 21 21 21 21 21 21 21 21 21 21 21 21 21 21 21 21 21 22 22 22 22 22 22 21
32 33 32 32 34 34 34 33 32 32 30 30 30 29 28 25 23 22 22 22 22 22 22 22 22 22 22 22 21 21 21 21 22 22 21 21 21 21 21 21 21 21 21 22 22 21 21 22 21
31 34 33 34 33 34 33 33 32 32 31 30 29 29 28 24 23 23 22 22 22 22 21 21 22 21 21 21 21 21 21 21 21 21 21 21 22 22 21 21 22 21 21 21 21 21 21 22 22
34 35 34 34 34 35 34 34 32 31 31 29 28 26 25 23 23 24 24 23 21 21 21 21 22 22 21 22 21 22 22 22 22 22 21 22 22 21 21 21 22 22 21 21 21 21 21 21 22
32 35 34 35 34 34 34 34 33 32 30 31 29 26 25 24 24 25 25 24 23 22 21 21 21 21 21 22 22 21 22 22 21 21 21 21 21 21 21 22 22 22 22 22 22 22 22 21 21
35 34 34 35 34 34 34 34 33 33 33 32 30 27 26 26 25 25 25 24 23 22 22 22 21 21 21 21 21 21 21 21 21 21 21 21 21 21 21 22 22 22 22 22 21 22 22 21 21
35 35 34 35 34 34 33 33 33 32 31 30 28 27 27 27 26 25 25 24 24 23 22 21 20 23 21 21 21 22 21 21 21 21 22 22 22 21 21 22 22 23 22 22 22 22 22 21 21
34 34 34 35 34 34 34 33 33 31 29 29 28 27 28 27 26 26 25 24 24 23 21 21 24 25 24 22 21 21 21 21 21 22 22 22 22 22 23 23 23 22 22 22 22 22 22 22 21
34 36 36 36 35 35 35 33 33 32 30 29 29 28 28 27 26 26 25 25 24 22 22 24 25 26 23 22 21 21 21 21 21 22 22 23 23 23 23 22 23 23 23 23 22 22 21 21 21
34 35 36 35 35 34 36 36 35 31 31 30 29 28 28 27 27 26 26 25 23 22 21 24 24 25 22 21 21 21 21 21 21 21 22 23 23 23 23 23 22 23 23 22 21 22 21 21 21
34 35 34 35 34 34 35 36 34 31 31 30 29 29 28 28 27 26 26 25 24 22 21 23 23 21 20 21 20 19 19 20 21 21 21 22 22 23 23 23 22 23 22 22 21 22 21 21 21
34 34 34 33 34 34 34 34 32 30 31 31 30 29 29 29 29 27 26 25 24 22 21 21 21 18 20 20 19 19 20 20 21 21 22 23 23 23 23 23 23 23 21 21 20 20 21 20 20
33 32 32 33 34 34 34 35 35 31 31 31 30 29 29 30 29 27 26 25 24 22 21 20 19 19 20 19 19 19 19 21 22 22 22 23 23 22 22 23 22 22 21 21 20 20 20 20 19
32 33 34 34 33 34 34 35 33 31 32 32 31 30 30 30 28 27 25 24 23 22 21 21 19 20 20 20 20 20 20 21 22 22 23 23 22 22 23 22 22 21 21 20 20 19 20 20 19
33 34 34 34 33 32 33 34 34 33 31 31 31 31 31 31 29 27 25 24 23 22 21 21 20 20 21 21 20 21 20 21 20 21 22 22 22 22 21 21 21 20 20 20 20 19 19 20 19
34 33 34 33 35 34 31 34 33 33 33 32 31 31 31 31 29 27 26 24 23 22 21 20 21 21 21 21 20 21 21 20 20 20 20 20 21 21 21 20 20 19 19 19 19 19 19 19 19
34 33 33 32 33 33 32 34 35 31 33 33 31 30 32 32 29 28 27 25 23 22 21 20 20 21 21 21 21 21 21 20 20 20 20 20 20 19 18 18 19 19 19 19 19 19 19 18 19
31 32 30 29 32 33 30 31 34 34 32 32 32 31 31 30 29 28 26 23 22 22 21 20 19 20 21 21 21 21 20 20 20 20 20 19 19 19 18 18 18 18 18 19 19 19 19 19 18
32 34 32 32 32 33 28 30 34 33 31 30 30 31 31 29 28 27 25 24 22 22 22 21 19 19 20 20 21 20 20 20 19 19 19 19 19 19 18 18 18 18 18 18 18 18 19 19 18
32 34 33 30 31 32 28 32 35 31 29 29 29 30 31 29 28 27 27 25 24 23 22 21 20 19 19 19 19 19 19 20 19 19 19 19 18 18 17 17 17 18 18 18 18 18 18 18 19
30 32 31 29 26 31 31 32 33 31 31 29 29 29 29 29 28 27 26 25 24 23 23 22 20 20 19 19 19 19 20 19 19 18 18 18 17 17 17 17 17 17 17 17 17 18 18 18 18
32 30 32 31 30 31 31 30 33 33 33 30 29 29 28 27 27 26 25 24 23 24 23 22 21 20 20 20 19 19 19 19 18 18 18 17 17 16 16 16 16 17 16 16 17 17 17 17 17
30 32 29 31 29 32 31 33 32 32 32 30 28 27 27 26 26 26 25 24 24 24 23 22 20 19 19 18 20 20 19 19 18 18 18 17 17 16 16 16 16 16 15 16 16 16 16 16 16
31 32 31 33 28 27 31 33 29 29 28 27 27 26 26 25 26 25 24 23 24 24 22 20 20 19 18 18 20 19 18 18 18 17 17 17 16 16 16 16 16 15 15 15 16 16 16 16 15

GFSSGP_925_temp_048.txt.gz
Temp
23 24 27 29 35 37 36 35 37 35 35 35 34 34 33 32 32 29 28 28 27 28 25 23 22 22 23 23 23 23 23 23 23 23 23 23 23 22 22 22 22 22 22 21 21 21 21 21 21
26 26 28 34 37 36 35 36 35 34 34 34 34 34 33 30 30 29 28 27 27 27 26 24 22 22 22 23 23 23 23 23 23 23 22 22 22 22 22 22 22 22 22 22 21 21 21 21 21
26 28 34 38 37 35 35 36 35 34 34 34 33 33 32 29 29 29 27 27 27 27 27 23 22 22 22 23 23 22 23 23 22 22 22 22 22 22 22 22 22 22 22 22 21 22 21 21 21
28 31 35 38 36 35 36 36 35 35 35 34 34 31 30 29 29 29 27 27 26 27 27 23 22 22 22 22 23 22 23 23 22 22 21 21 21 22 22 22 22 22 22 21 22 22 22 21 21
30 36 38 37 36 36 37 36 35 35 34 34 34 31 30 28 28 27 27 27 27 27 27 23 22 22 21 22 22 22 22 22 22 22 21 21 21 21 22 22 22 22 22 21 21 22 22 22 21
36 37 38 37 37 37 37 36 36 35 34 33 33 32 30 28 28 27 27 27 27 27 27 24 22 22 22 22 22 22 21 21 21 21 21 21 21 21 21 21 21 22 22 22 22 21 21 21 21
36 39 37 38 37 37 37 37 37 36 34 33 34 32 30 29 28 27 27 27 27 27 27 24 24 22 22 21 22 22 21 21 21 21 21 22 21 21 21 21 21 22 22 22 22 22 21 22 21
37 39 38 38 38 37 38 37 37 36 34 34 34 33 31 29 27 27 26 26 26 27 26 24 24 23 23 23 22 22 21 22 21 21 21 21 21 21 21 21 22 22 22 21 22 21 21 21 21
37 38 38 38 37 38 39 37 36 36 34 34 33 34 33 28 27 27 27 26 26 26 26 26 25 23 23 24 23 22 22 22 21 22 21 21 24 23 22 23 22 22 22 22 22 21 21 21 21
37 39 38 39 39 39 38 38 36 36 35 33 32 31 29 28 28 28 28 27 27 26 26 26 25 25 24 25 24 23 24 24 24 24 23 23 25 24 24 23 22 22 21 22 22 22 21 22 23
39 39 39 39 39 39 39 38 38 37 35 35 34 31 30 29 29 29 29 28 27 26 25 24 25 25 25 25 25 23 25 24 24 24 23 22 25 24 23 24 23 23 22 24 23 22 23 24 24
39 39 39 39 39 38 38 39 38 37 36 36 35 33 31 30 30 30 29 29 28 26 25 24 25 24 24 25 24 24 24 23 25 24 23 23 23 24 23 22 23 23 23 23 25 25 25 24 23
39 39 39 39 39 39 38 38 38 37 36 36 34 33 32 32 31 30 29 29 28 27 26 25 24 23 23 23 24 23 22 23 23 22 21 21 21 22 24 23 22 22 23 22 22 23 23 24 24
39 39 40 40 39 38 38 38 37 37 35 34 33 33 33 33 31 30 29 29 28 27 26 25 24 22 22 23 22 22 21 21 21 22 21 21 21 22 22 22 23 24 24 24 24 23 23 23 24
39 39 40 40 39 39 39 37 37 37 35 34 34 33 33 32 31 30 30 29 28 27 26 25 23 22 21 22 22 21 22 21 21 21 21 21 20 21 22 22 22 24 24 23 23 23 23 23 23
39 39 39 40 39 39 39 38 40 37 36 35 34 34 33 32 31 31 30 29 28 27 26 24 22 22 21 22 21 21 21 21 21 21 21 22 20 21 21 23 24 23 22 24 22 22 22 22 23
39 38 38 38 38 39 38 39 38 38 37 36 35 34 33 32 31 30 30 29 28 27 25 24 22 23 22 21 20 20 20 21 21 22 22 22 22 22 22 24 24 23 24 24 24 23 22 23 23
38 38 38 37 38 38 38 38 39 37 37 36 35 34 33 33 33 31 30 29 28 26 25 23 22 22 20 20 19 19 18 20 21 22 22 21 22 22 22 22 23 23 24 25 25 24 24 24 24
38 37 37 38 38 37 39 39 39 38 37 37 35 34 34 34 34 32 30 29 28 26 25 23 22 21 20 22 22 19 19 20 22 22 21 20 22 23 23 22 22 23 24 24 24 23 23 23 23
37 37 37 38 37 37 38 38 39 38 37 37 36 35 34 35 34 33 30 29 28 27 25 23 21 20 20 22 22 21 19 21 21 22 21 21 22 23 22 22 22 23 24 23 23 23 23 24 21
37 37 37 37 38 38 38 38 38 38 37 36 36 36 35 35 34 33 31 29 28 27 25 24 21 21 21 20 21 20 19 21 23 22 22 21 22 22 22 22 22 22 22 24 23 23 22 23 20
37 38 37 37 37 37 38 37 38 38 38 37 37 36 36 35 35 33 31 29 28 27 25 24 22 22 21 20 21 21 23 23 23 23 22 22 21 22 21 21 21 21 22 22 22 22 21 20 21
37 38 37 37 37 37 38 37 38 37 38 37 37 36 36 36 35 34 32 30 28 27 25 24 22 21 21 21 21 22 23 23 23 23 22 21 21 21 21 21 21 21 20 20 20 20 20 20 20
36 36 36 37 38 36 37 36 38 38 37 37 37 36 35 36 35 34 32 29 27 26 24 24 22 22 21 21 21 21 22 23 23 23 23 23 23 22 19 20 19 19 19 19 20 20 20 20 19
37 37 35 35 36 35 35 35 37 37 36 36 35 36 35 35 34 33 31 28 27 26 25 24 23 22 22 21 21 22 22 22 22 22 23 23 23 23 19 19 18 18 18 18 19 20 20 20 20
36 37 36 33 35 36 34 35 37 37 36 35 35 35 35 35 34 33 31 29 28 27 26 25 23 22 22 22 21 21 21 22 22 21 22 22 22 21 19 19 19 18 18 18 18 18 19 20 20
36 35 37 35 35 35 37 36 38 37 36 35 35 35 34 33 33 32 31 30 29 27 26 25 23 22 22 22 21 21 21 21 22 21 21 21 20 20 19 19 19 18 18 17 17 18 18 18 18
36 38 35 36 33 33 35 35 36 36 37 35 34 33 32 32 32 31 31 30 29 28 26 25 24 22 22 22 21 20 20 20 20 20 20 20 19 19 19 19 19 19 18 17 17 17 17 18 18
35 35 36 37 35 35 34 35 37 37 36 35 33 32 32 32 32 31 31 30 29 28 27 25 23 22 21 19 19 19 19 20 20 20 20 19 19 19 18 18 18 19 19 18 17 17 18 18 18
36 36 36 35 33 35 34 35 37 36 34 34 32 31 31 31 31 30 30 29 29 28 27 23 20 19 19 18 17 18 20 20 20 20 19 19 18 18 18 18 18 18 18 18 17 17 17 18 17